Dewpoint
60 55 50 55 54 48 40 39 24 32 26 18 17 19 14 17 19 19 20 21 20 23 26 29 35 33 32 35 40 48 52 36 37 31 30 48 61 66 67 68 69 69 70 70 70 70 70 70 71 71 71 71 70 70 70 70 69 69 69 69 69 69 69 69 69 68 68 68 67 67 67 66 65 65 64 67 70 70 70 69 69 68 67 65 65 65 64 64 64 65 66 66 67 67 67 66 65
57 53 50 55 49 39 36 40 31 19 22 16 13 18 15 19 21 20 21 23 24 26 26 37 45 45 45 46 50 47 42 54 53 50 58 62 65 66 67 69 69 69 70 70 70 69 70 70 71 71 71 71 71 70 70 70 69 69 69 69 69 69 69 69 69 68 68 67 67 67 67 66 65 64 64 65 69 69 69 69 69 68 67 64 65 65 64 64 65 65 66 67 66 66 66 66 65
59 53 49 46 44 41 41 34 26 23 16 9 12 13 20 23 22 23 24 24 24 26 29 35 35 34 37 40 40 37 34 56 59 59 61 63 64 64 68 69 69 69 69 70 70 69 69 70 70 71 71 71 71 70 70 70 69 69 69 69 69 69 69 69 68 68 68 67 67 67 66 66 65 64 65 67 67 69 69 69 68 68 66 65 65 65 64 65 65 65 65 66 66 66 66 67 66
56 55 49 46 40 44 34 31 29 17 16 15 11 12 25 24 25 25 26 27 28 26 27 27 26 25 42 42 44 49 49 52 56 59 61 62 62 66 68 69 69 69 69 69 69 69 69 70 70 71 71 71 71 70 70 70 69 69 69 69 69 69 69 69 68 68 68 68 67 67 66 66 65 65 64 66 66 67 67 67 67 66 66 65 64 64 64 64 64 65 65 66 66 66 66 66 66
52 55 50 46 42 37 33 31 25 22 11 13 12 14 25 26 25 28 27 27 25 26 28 27 29 31 43 44 43 43 47 53 57 58 58 60 63 66 68 69 69 69 69 69 69 69 69 69 70 71 71 71 71 70 70 70 69 69 69 69 69 69 69 69 68 68 68 68 67 67 67 66 65 65 65 64 66 66 66 66 66 66 65 64 63 64 64 64 64 65 66 65 65 65 65 65 66
51 50 51 40 32 42 34 17 20 15 18 17 14 20 26 26 26 25 25 25 24 24 27 25 27 29 45 47 48 51 54 52 56 59 59 60 63 65 68 68 68 69 69 69 69 69 69 69 70 71 71 71 70 71 70 70 69 69 69 69 69 69 69 68 68 68 68 68 67 67 67 66 66 65 65 64 63 64 64 65 65 65 65 64 65 64 64 64 65 65 65 65 65 65 65 65 65
42 44 43 38 37 37 27 19 14 16 13 18 19 24 25 25 25 23 23 23 24 23 24 31 41 38 42 46 44 53 56 57 58 58 60 61 63 64 67 68 68 68 69 69 69 69 69 69 71 71 71 71 70 70 70 70 69 69 69 69 69 69 69 69 68 68 68 67 67 67 66 66 65 65 65 64 63 64 64 64 64 63 63 63 63 64 64 64 64 65 64 65 66 65 64 64 65
48 37 39 30 32 27 23 21 17 24 14 20 23 24 24 25 25 23 22 22 23 22 22 29 30 26 27 43 40 51 58 61 59 60 61 62 63 64 66 68 68 68 69 69 69 69 70 69 70 71 71 71 71 70 70 70 70 69 69 69 69 69 69 68 68 68 68 68 67 67 66 65 64 64 63 63 63 62 63 63 63 63 63 63 63 63 63 64 65 65 64 65 65 65 64 63 64
43 36 42 32 27 31 18 15 14 17 17 22 22 27 33 24 23 21 21 23 23 23 22 24 25 24 28 47 47 50 57 60 61 62 62 62 63 63 66 68 68 68 69 69 69 69 69 68 70 70 70 71 71 70 70 70 69 69 69 69 69 69 69 69 67 67 67 67 67 67 66 65 65 65 64 64 63 63 63 63 63 63 63 63 63 63 63 64 64 64 64 65 64 64 64 64 64
36 32 26 26 33 23 21 13 15 13 17 20 22 25 26 23 22 21 20 20 20 22 22 24 25 25 35 45 48 50 55 60 61 61 61 62 63 63 65 68 68 68 68 69 68 69 68 69 68 70 70 71 71 70 70 70 69 69 69 69 69 69 69 68 68 68 68 67 67 66 66 65 65 65 65 64 64 63 64 63 63 63 63 63 63 63 63 63 64 64 64 63 63 64 64 64 64
31 33 39 26 26 22 19 13 14 15 17 14 19 25 23 22 21 19 19 18 22 23 24 27 32 37 40 42 46 49 55 60 60 60 61 62 62 63 64 68 68 68 68 69 69 69 68 69 69 68 69 69 70 70 70 70 70 69 69 69 69 68 68 68 68 67 67 67 67 66 66 66 65 64 64 64 64 64 64 63 63 63 63 62 63 63 62 62 63 64 64 63 64 64 63 64 64
28 30 32 26 22 21 21 15 18 15 15 16 17 18 18 20 17 15 19 19 22 23 23 25 30 37 38 40 43 54 58 59 59 60 60 61 62 63 65 67 68 68 68 69 69 69 68 68 68 68 67 68 68 69 69 69 69 70 70 69 69 68 68 68 68 67 67 67 67 66 66 65 65 65 64 64 64 64 64 63 63 63 62 62 62 62 62 62 62 63 63 63 63 63 64 64 64
32 35 28 20 17 21 24 16 15 20 16 14 16 16 16 15 14 15 19 21 21 20 20 22 29 34 35 39 41 55 57 59 59 59 60 60 62 63 65 68 68 68 68 68 69 69 68 68 68 68 67 66 67 67 67 68 69 69 69 69 69 69 69 68 68 67 67 66 66 66 66 65 65 64 64 64 64 64 63 63 63 62 62 62 62 62 61 63 63 63 62 62 63 63 63 63 63
33 35 29 24 26 21 18 18 18 14 11 17 15 18 15 15 15 14 16 19 19 16 19 22 26 40 39 45 47 53 56 58 59 59 59 61 63 64 66 67 67 68 68 68 68 68 68 68 68 67 67 67 67 66 65 67 68 69 69 69 68 68 68 68 68 67 67 66 66 66 66 65 65 65 64 64 63 63 63 62 62 62 62 62 62 61 61 62 62 62 62 62 62 62 63 63 63
33 41 34 27 22 18 22 15 15 18 12 15 16 16 18 21 16 14 17 17 17 20 26 30 35 29 28 40 38 53 56 58 59 59 60 61 63 64 65 66 67 67 67 67 68 68 68 68 67 67 67 67 66 67 67 67 66 67 68 68 68 68 68 67 67 67 66 65 65 64 64 64 64 64 64 64 63 63 63 62 62 62 62 62 61 61 61 61 60 61 61 62 62 62 62 62 62
40 37 27 22 16 17 16 21 24 16 12 16 17 18 17 18 20 16 17 19 22 29 24 20 27 23 27 34 31 48 57 59 59 59 60 60 61 62 64 65 66 67 67 67 67 67 67 67 67 67 67 67 67 67 67 67 65 65 67 67 67 67 67 66 66 65 63 62 62 62 61 62 61 61 61 61 62 62 61 60 62 62 62 62 61 61 60 59 59 59 60 60 61 61 61 61 60
41 32 16 21 12 14 15 18 17 11 18 18 18 17 15 17 20 23 24 26 22 21 34 36 32 50 39 38 49 54 58 59 58 59 59 59 60 61 63 64 66 66 67 67 67 67 67 67 67 67 67 67 67 67 67 67 66 65 65 65 65 65 65 65 65 62 60 59 59 58 59 60 60 60 60 59 58 59 58 59 61 61 61 61 60 59 58 58 58 58 58 58 58 58 57 57 57
30 24 23 18 22 15 18 16 17 18 14 15 16 17 16 16 18 21 19 19 22 28 30 33 52 55 56 55 56 59 59 59 59 59 58 58 58 59 61 63 64 65 66 66 67 67 67 67 67 67 67 67 67 67 67 67 66 66 67 66 66 65 64 62 62 62 61 59 58 58 59 59 59 59 59 60 58 58 58 58 59 60 60 59 59 58 57 57 57 57 57 57 56 55 52 50 51
24 25 25 15 24 17 18 18 19 15 15 16 16 17 15 15 18 20 17 18 21 25 25 38 47 54 56 56 57 58 58 59 58 59 58 58 58 59 59 60 62 64 64 65 66 67 67 67 67 67 67 67 68 68 68 67 67 67 67 67 66 64 64 63 63 62 61 59 59 58 58 58 58 58 58 58 58 57 57 57 58 59 59 58 58 56 56 56 56 56 55 54 53 51 47 47 48
30 24 18 23 27 19 19 20 20 20 16 15 15 16 16 16 16 21 16 17 22 21 23 28 38 48 54 55 56 57 58 58 58 58 58 58 58 59 58 58 60 62 64 65 65 66 67 67 67 67 67 67 68 68 68 67 67 68 68 67 66 66 65 64 62 62 61 59 59 59 58 58 58 58 58 58 57 56 57 56 56 56 55 53 52 51 54 55 54 53 52 51 49 46 46 46 47
20 23 19 18 20 16 16 20 20 21 15 15 15 16 16 18 17 15 14 16 17 19 22 25 26 40 55 56 56 56 57 57 57 57 57 58 58 58 59 59 61 62 63 63 64 65 66 67 67 67 67 67 68 68 68 67 68 67 68 67 66 66 65 64 63 62 61 60 59 59 58 58 58 57 57 56 56 55 54 54 53 51 48 46 47 43 42 44 43 43 43 44 44 45 45 46 47
19 15 21 19 20 16 17 20 22 21 17 14 16 14 15 19 18 15 14 12 12 14 16 22 25 39 56 55 56 56 57 57 57 57 57 57 57 58 58 57 56 57 58 61 63 64 64 66 65 66 67 67 68 68 67 67 67 67 67 67 67 66 66 65 63 62 61 60 60 59 58 57 57 57 56 56 55 54 52 51 49 49 47 45 43 41 40 41 41 41 41 42 42 43 44 45 46
15 16 19 23 21 16 19 20 21 18 16 15 15 16 19 19 19 19 13 11 14 17 15 17 23 41 56 56 56 55 56 56 57 57 56 56 57 58 58 58 58 58 59 61 62 63 63 64 65 65 66 67 67 68 67 67 67 67 67 67 67 66 66 65 64 63 61 60 61 59 58 57 57 57 56 55 54 52 50 49 48 48 47 44 42 40 40 40 39 39 40 40 41 42 43 44 45
19 16 18 20 22 19 22 20 23 19 16 15 17 21 19 18 17 18 15 15 15 20 27 23 20 42 55 55 55 55 55 56 56 57 57 56 57 58 58 58 58 58 58 60 60 62 62 63 64 63 65 66 66 67 67 67 67 67 67 66 66 65 66 66 65 63 62 61 62 59 57 57 57 56 55 54 53 51 49 48 48 49 46 42 41 40 39 38 38 38 39 40 40 41 41 42 43
19 18 21 21 22 22 22 21 21 21 21 22 20 18 18 17 16 21 19 18 19 20 32 34 32 47 54 54 54 54 54 55 55 56 56 56 56 56 55 57 58 57 58 59 59 60 62 62 63 63 64 65 65 66 67 67 67 67 67 66 66 64 66 66 66 65 62 62 63 60 58 57 56 56 55 54 52 50 49 48 49 49 44 42 40 38 37 36 36 37 38 38 38 38 39 40 41
22 19 22 23 22 22 21 21 22 22 22 20 17 18 19 20 21 19 19 20 20 27 35 36 38 45 50 52 54 54 54 54 54 54 56 56 55 56 56 57 58 58 58 59 58 59 61 62 62 62 63 64 64 64 65 66 66 66 66 66 66 64 66 66 66 66 64 63 64 61 58 57 56 56 55 54 51 50 49 49 50 47 42 41 38 37 36 35 35 36 36 37 37 37 38 39 39
20 22 22 21 22 21 23 19 22 23 23 21 16 18 21 23 19 14 18 20 24 29 34 36 36 39 44 47 51 52 52 53 54 54 53 54 54 56 56 56 57 58 58 58 58 59 60 61 62 62 62 62 62 64 64 65 65 66 66 66 66 65 66 66 66 66 65 64 64 62 59 57 57 57 55 53 51 50 49 50 50 45 43 41 38 36 35 34 35 36 36 36 35 35 36 36 37
22 22 22 22 23 24 23 21 22 22 19 22 20 20 22 22 23 17 18 22 25 25 29 33 35 35 38 41 47 49 49 50 53 51 53 53 55 55 56 56 57 58 58 58 58 58 59 61 61 61 62 61 61 62 62 63 64 64 65 65 65 65 65 66 65 65 64 65 65 63 61 59 57 58 56 53 51 50 49 51 49 44 43 41 37 35 34 33 33 33 33 33 33 33 33 33 34
22 21 20 22 22 21 22 20 21 23 21 23 23 16 16 23 20 21 22 27 23 24 26 29 32 33 36 37 40 44 45 45 49 51 52 53 54 56 56 57 57 58 58 58 58 58 58 60 61 61 61 60 60 61 62 62 63 63 63 64 64 64 65 65 65 65 65 64 64 64 62 60 58 59 57 54 52 50 50 51 47 44 42 38 37 35 34 32 31 31 31 31 31 31 31 31 34
22 21 22 20 21 20 21 22 23 22 22 25 18 11 12 12 20 20 21 28 21 21 23 26 27 27 29 33 36 39 41 42 44 49 50 51 52 54 55 56 56 58 57 57 57 57 58 59 60 60 60 60 60 60 60 61 62 62 62 63 62 63 64 64 64 65 64 64 63 63 63 61 60 60 58 57 55 52 52 50 47 44 41 38 35 33 32 30 30 30 30 30 33 31 30 30 29
19 21 23 23 18 17 22 23 23 19 24 24 12 12 11 13 13 15 19 24 23 21 21 23 26 27 27 28 29 33 37 41 41 43 47 49 51 53 54 55 56 57 56 56 57 57 57 58 59 59 58 59 59 59 58 59 60 62 61 61 61 62 63 64 64 64 64 64 64 64 63 62 61 61 59 57 57 55 52 50 47 43 40 37 33 32 30 29 29 30 31 30 29 28 28 29 28
19 15 17 22 16 20 24 26 20 18 22 21 17 18 13 12 15 19 26 29 25 23 23 23 24 25 27 29 29 28 29 32 38 41 44 47 49 51 53 54 55 56 56 57 57 56 57 57 57 58 57 58 58 58 57 57 59 61 61 59 60 60 62 62 63 64 64 64 64 63 63 63 62 62 60 58 57 54 53 51 48 43 40 35 33 31 29 29 29 31 29 28 27 27 27 26 26
24 16 21 17 20 20 21 24 24 23 24 24 17 14 16 13 18 24 24 27 25 24 24 24 25 25 26 27 29 30 30 30 32 35 40 45 48 50 51 53 55 56 56 56 56 55 56 56 56 57 56 56 56 56 55 54 56 59 59 59 59 59 60 61 61 61 62 63 63 64 63 63 62 62 60 58 56 54 53 51 50 45 41 38 33 30 29 30 29 30 27 27 27 26 25 25 25
18 22 17 26 16 18 19 22 24 29 23 21 24 19 18 14 17 19 21 28 27 25 24 24 24 25 25 26 27 29 30 31 31 32 35 42 47 49 51 52 55 55 54 55 56 56 55 55 55 55 55 55 55 55 54 53 55 57 57 58 58 58 58 59 59 59 60 61 62 63 63 62 62 62 61 59 56 55 53 50 48 45 41 37 34 31 28 27 27 26 26 26 26 26 25 24 24
17 17 16 14 17 20 19 21 21 24 23 22 22 22 20 20 21 21 21 22 26 26 26 26 25 25 25 26 26 26 28 30 31 32 34 39 46 49 50 51 53 54 54 54 54 54 54 53 53 53 53 53 53 53 52 51 53 53 53 56 56 57 57 56 56 58 59 58 60 61 62 62 61 61 60 59 57 54 52 49 46 44 42 40 35 30 26 26 26 25 25 25 26 26 25 24 24
18 20 20 21 17 19 16 18 21 24 22 22 21 21 21 21 21 21 20 20 22 23 25 26 25 25 25 25 26 27 28 29 30 34 37 39 44 48 50 51 52 54 53 53 53 53 53 52 51 51 51 52 52 52 52 50 52 53 55 54 55 56 55 55 55 57 57 58 57 59 60 61 60 59 59 58 56 54 52 49 46 44 41 38 34 28 26 25 25 25 25 24 24 25 25 24 24
24 26 23 20 20 19 19 24 25 23 21 20 21 21 20 19 18 18 17 18 20 19 19 21 23 24 25 25 25 26 27 28 34 37 38 40 42 47 49 50 50 51 52 52 52 51 52 52 51 51 51 51 53 53 52 52 52 51 52 55 57 56 54 53 54 55 56 57 57 57 58 59 60 59 58 57 56 53 52 49 47 44 41 37 32 28 26 27 26 25 26 25 24 23 24 24 23
18 21 20 19 20 15 18 23 26 26 19 19 22 21 21 20 20 20 20 20 19 19 18 18 18 20 22 23 25 26 26 30 32 34 38 40 42 45 48 49 49 50 50 51 51 51 51 50 51 51 50 51 52 53 53 52 52 53 54 55 54 54 53 53 53 51 53 54 56 56 56 58 59 59 57 57 55 54 51 49 47 45 43 39 34 31 29 29 26 26 25 24 24 23 22 22 23
27 17 24 19 19 23 23 26 27 27 24 22 24 23 23 23 22 22 21 20 20 19 19 18 17 18 19 20 22 25 27 28 29 32 37 40 41 44 48 49 50 51 50 51 51 50 50 50 51 50 51 51 52 52 53 52 50 49 50 48 52 49 48 50 49 47 48 52 53 55 56 57 58 58 57 56 55 54 52 49 47 45 43 39 35 31 28 25 25 25 24 23 23 23 22 24 20
20 17 13 13 21 21 20 20 26 27 24 24 26 25 25 25 25 26 26 25 24 24 23 21 22 20 19 19 21 24 25 27 28 29 31 39 41 44 46 48 49 49 49 49 49 50 50 50 50 50 50 50 51 51 51 49 48 46 46 47 46 47 46 47 48 47 47 49 52 53 55 56 57 57 57 55 55 53 52 50 47 44 42 39 36 31 27 24 24 25 24 23 21 20 20 20 20
22 25 23 22 23 25 21 19 25 24 20 30 21 19 15 19 23 24 26 31 30 28 27 26 25 26 25 29 31 29 24 26 28 30 34 40 42 45 46 47 47 48 49 49 49 50 50 50 50 50 50 50 50 50 49 48 48 46 45 45 45 46 46 46 47 47 48 48 51 52 54 54 56 56 56 55 54 53 51 50 47 44 42 39 36 32 27 24 24 24 24 23 20 19 19 18 20
20 25 25 20 25 26 30 28 16 14 12 21 20 9 17 19 19 20 23 28 24 28 27 27 27 27 27 26 27 29 33 33 29 30 34 40 42 42 43 45 47 48 48 49 49 50 49 49 49 49 49 49 49 49 49 49 49 47 46 46 46 48 48 48 49 49 47 48 49 49 50 53 54 55 55 55 54 53 51 49 47 44 42 39 37 33 28 26 27 33 27 21 20 19 17 15 15
14 13 29 27 27 29 28 22 17 12 5 16 23 5 10 17 15 12 11 10 10 14 22 26 26 26 29 29 29 29 30 32 35 38 39 41 41 42 43 45 46 47 48 47 47 48 48 48 48 49 49 49 48 48 48 49 48 48 47 48 48 49 50 49 49 49 48 48 47 47 49 50 53 54 54 54 53 52 52 49 47 44 42 39 37 34 31 29 31 29 26 22 20 21 17 14 13
13 21 33 30 28 28 27 24 17 15 22 25 28 19 13 16 15 19 16 15 14 15 17 20 22 25 28 30 31 31 33 34 36 39 41 41 42 43 43 44 45 47 46 45 46 47 47 47 48 48 48 48 48 48 48 49 49 48 47 47 48 49 50 50 49 49 48 47 47 46 47 48 51 53 53 53 53 52 51 50 48 45 44 41 38 38 36 32 29 30 25 22 20 19 16 13 12
18 29 32 30 29 30 28 25 25 27 16 16 22 26 18 20 23 23 20 17 17 16 15 16 20 26 26 28 29 31 32 35 38 39 41 41 42 43 43 43 44 44 45 46 46 47 47 46 46 46 47 47 47 47 48 48 49 49 48 48 48 48 49 49 48 47 47 47 47 46 46 46 48 50 52 53 52 52 50 50 48 46 44 42 38 38 33 30 26 25 23 22 20 20 16 13 13
32 33 34 33 31 30 27 25 21 22 8 14 18 23 9 13 20 16 18 17 17 16 15 16 20 24 26 27 27 32 38 39 40 40 40 41 42 42 42 42 43 45 44 44 44 44 44 44 46 46 46 47 46 47 47 47 47 47 48 48 48 48 48 47 47 47 47 46 47 47 46 45 45 47 50 51 52 51 50 49 48 46 44 42 39 38 35 31 27 25 23 21 20 18 17 15 14
35 32 29 28 27 27 24 24 21 10 2 13 21 24 10 9 17 14 17 19 18 17 17 18 21 24 25 32 34 38 39 39 39 39 39 39 39 40 41 42 42 43 42 43 44 44 44 45 45 46 46 46 46 47 46 47 47 47 48 48 47 48 49 48 47 47 47 46 47 47 46 45 45 46 47 50 51 51 50 49 48 47 45 43 41 40 35 32 28 26 24 22 21 19 17 15 20
30 25 24 20 19 24 22 19 20 5 9 16 21 25 13 6 14 21 21 20 22 20 18 17 21 23 24 34 38 38 38 38 37 38 38 39 39 40 40 41 41 42 42 42 42 42 44 45 45 45 45 45 46 46 46 46 47 47 47 47 47 48 49 48 47 47 46 46 46 46 46 45 44 44 44 47 49 50 50 50 49 47 45 44 41 41 37 32 29 27 25 22 20 19 17 17 20
26 21 18 16 10 15 6 12 5 8 8 16 22 25 19 17 17 19 17 17 18 22 20 20 21 22 24 35 38 37 37 37 37 37 37 38 38 39 40 40 40 41 43 43 43 44 44 44 45 45 45 45 45 46 46 46 46 46 47 47 47 48 49 49 48 47 46 46 46 45 45 45 44 43 43 45 47 49 50 50 49 49 47 44 41 39 37 33 31 28 26 23 22 20 19 18 22
23 21 18 12 2 8 1 5 8 9 15 20 24 24 19 20 21 23 19 19 18 22 23 24 23 23 24 36 38 37 37 36 36 36 37 37 38 39 39 39 40 41 41 43 43 43 44 44 44 45 45 44 44 45 45 45 45 46 46 47 48 48 48 48 48 48 47 45 45 45 45 45 44 44 44 44 45 48 49 49 49 49 47 46 44 41 38 36 34 33 29 25 23 22 20 20 22
25 23 18 17 12 8 -0 3 -1 9 13 17 21 14 18 13 16 21 25 24 25 27 25 24 27 29 31 33 36 36 36 36 35 36 37 38 39 39 40 40 40 41 42 42 43 43 43 44 44 44 44 43 44 44 44 45 45 45 46 47 47 48 48 48 48 48 47 45 44 44 44 44 45 44 44 43 43 45 48 49 49 48 47 46 44 44 41 38 36 33 30 27 25 24 22 22 22
27 26 21 11 13 18 -2 11 8 9 8 9 16 17 21 19 21 23 25 26 25 25 25 26 24 26 36 36 36 37 37 37 36 36 38 38 39 38 39 39 40 40 41 42 43 43 43 44 44 44 44 44 43 43 44 45 45 45 45 45 46 47 47 48 48 48 47 46 44 43 43 43 44 44 43 43 43 43 45 47 48 48 48 46 44 43 41 38 36 34 32 30 28 30 25 24 23
23 25 20 23 23 21 13 12 19 11 12 11 13 19 20 18 9 15 18 21 21 22 22 21 22 24 33 34 36 36 37 36 36 38 38 38 38 39 39 39 40 40 40 42 43 44 44 44 43 43 43 43 43 43 43 44 44 44 44 45 45 46 46 47 48 47 47 46 45 44 42 42 42 42 42 42 43 42 44 46 47 48 47 46 45 43 42 40 38 36 34 32 29 29 27 25 25
28 22 25 28 28 24 14 7 8 6 6 10 11 11 10 6 11 21 17 18 19 20 20 20 21 23 23 26 35 37 37 37 37 38 38 39 39 39 39 40 40 40 41 42 43 43 44 44 44 44 43 43 43 43 43 43 43 43 44 44 44 45 46 46 47 47 47 46 45 44 43 42 41 41 41 41 41 41 43 43 46 47 47 46 45 43 42 41 38 36 35 33 31 30 29 28 27
26 25 29 21 17 13 20 13 4 6 5 8 13 14 15 12 10 13 11 15 15 16 18 19 19 20 21 22 31 35 36 36 37 38 39 40 39 40 40 40 40 40 40 41 42 43 43 43 43 44 44 44 44 43 43 43 43 43 43 43 44 44 45 45 45 46 46 46 45 44 43 42 41 40 39 39 39 40 42 43 44 44 45 45 45 43 42 41 39 37 35 34 33 31 29 28 28
33 31 27 29 24 17 15 15 12 14 3 -2 10 5 6 18 15 14 9 12 17 15 15 16 18 19 20 23 30 32 32 34 36 38 40 40 39 38 39 39 39 40 40 40 41 41 42 43 43 43 43 43 42 42 42 42 42 43 43 43 43 44 44 44 43 44 45 45 45 45 44 42 41 38 38 38 38 39 40 41 42 43 43 43 43 42 41 40 40 39 37 35 34 32 30 28 27
28 27 26 28 24 26 25 20 15 9 1 2 2 6 13 18 20 15 11 11 12 12 14 18 20 22 25 27 30 33 33 34 36 39 39 39 38 37 36 36 38 37 37 38 40 42 42 42 43 43 43 43 43 42 42 42 42 42 42 42 43 43 43 44 43 42 43 44 44 44 43 43 40 38 37 37 37 38 39 40 41 41 42 42 42 42 41 40 39 39 38 36 34 32 31 30 28
29 27 26 27 26 19 13 18 21 13 8 8 1 9 14 22 23 16 15 15 17 18 18 21 24 27 28 31 31 31 33 36 38 39 37 36 36 36 35 34 34 35 37 36 40 40 40 42 43 43 42 43 43 42 42 42 41 42 42 42 42 42 43 43 43 43 42 42 42 43 42 41 40 38 36 37 37 38 39 40 40 41 41 41 41 42 40 40 39 38 38 37 35 34 32 29 26